TimeMST,TemperatureF,Dew PointF,Humidity,Sea Level PressureIn,VisibilityMPH,Wind Direction,Wind SpeedMPH,Gust SpeedMPH,PrecipitationIn,Events,Conditions,WindDirDegrees,DateUTC
12:53 AM,39.9,14.0,35,30.06,10.0,NNE,11.5,-,N/A,,Clear,20,2013-01-09 07:53:00
1:53 AM,39.9,12.9,33,30.08,10.0,North,19.6,25.3,N/A,,Clear,10,2013-01-09 08:53:00
2:53 AM,39.9,12.9,33,30.09,10.0,NNE,19.6,-,N/A,,Clear,20,2013-01-09 09:53:00
3:53 AM,43.0,12.9,30,30.12,10.0,NNE,18.4,26.5,N/A,,Clear,20,2013-01-09 10:53:00
4:53 AM,41.0,12.9,32,30.14,10.0,NNE,17.3,24.2,N/A,,Clear,30,2013-01-09 11:53:00
5:53 AM,41.0,12.9,32,30.18,10.0,NNE,16.1,23.0,N/A,,Clear,30,2013-01-09 12:53:00
6:53 AM,39.9,14.0,35,30.22,10.0,NNE,15.0,-,N/A,,Clear,30,2013-01-09 13:53:00
7:53 AM,39.0,14.0,36,30.25,10.0,NNE,16.1,31.1,N/A,,Clear,20,2013-01-09 14:53:00
8:53 AM,44.1,15.1,31,30.29,10.0,NNE,15.0,-,N/A,,Clear,30,2013-01-09 15:53:00
9:53 AM,46.9,16.0,29,30.28,10.0,NNE,16.1,24.2,N/A,,Clear,20,2013-01-09 16:53:00
10:53 AM,51.1,16.0,25,30.23,10.0,NNE,20.7,29.9,N/A,,Clear,20,2013-01-09 17:53:00
11:53 AM,52.0,15.1,23,30.19,10.0,NNE,20.7,28.8,N/A,,Clear,30,2013-01-09 18:53:00
12:53 PM,55.0,15.1,21,30.15,10.0,NNE,17.3,25.3,N/A,,Clear,30,2013-01-09 19:53:00
1:53 PM,55.0,14.0,20,30.11,10.0,NNE,16.1,25.3,N/A,,Clear,30,2013-01-09 20:53:00
2:53 PM,57.0,14.0,18,30.09,10.0,NNE,15.0,24.2,N/A,,Clear,30,2013-01-09 21:53:00
3:53 PM,55.9,12.9,18,30.06,10.0,NNE,18.4,25.3,N/A,,Clear,30,2013-01-09 22:53:00
4:53 PM,54.0,12.9,20,30.07,10.0,North,11.5,-,N/A,,Clear,360,2013-01-09 23:53:00
5:53 PM,48.9,12.9,24,30.08,10.0,NE,12.7,-,N/A,,Clear,50,2013-01-10 00:53:00
6:53 PM,45.0,12.9,27,30.10,10.0,North,5.8,-,N/A,,Clear,360,2013-01-10 01:53:00
7:53 PM,44.1,14.0,30,30.09,10.0,North,8.1,-,N/A,,Clear,10,2013-01-10 02:53:00
8:53 PM,41.0,12.0,31,30.09,10.0,WNW,9.2,-,N/A,,Clear,300,2013-01-10 03:53:00
9:53 PM,39.0,12.0,33,30.08,10.0,NW,8.1,-,N/A,,Clear,310,2013-01-10 04:53:00
10:53 PM,37.0,12.0,36,30.06,10.0,NNE,3.5,-,N/A,,Clear,30,2013-01-10 05:53:00
11:53 PM,36.0,12.0,37,30.05,10.0,NW,5.8,-,N/A,,Clear,320,2013-01-10 06:53:00